This is the latest recevied weather packets stored in our database for station/object K0NV. If no packets are shown the sender has not sent any weather packets the latest 10 day(s).
| Time | Temp. | Humidity | Pressure | Rain* | Wind** | Luminosity | Snow |
|---|---|---|---|---|---|---|---|
| 1777503313 | 16.11° C | 58% | 1017.8 hPa | 0 mm | - | 236 W/m² | - |
| 1777503009 | 16.11° C | 61% | 1017.8 hPa | 0 mm | - | 229 W/m² | - |
| 1777502706 | 17.22° C | 58% | 1017.7 hPa | 0 mm | - | 277 W/m² | - |
| 1777502403 | 16.67° C | 61% | 1017.7 hPa | 0 mm | - | 258 W/m² | - |
| 1777502100 | 17.78° C | 58% | 1018 hPa | 0 mm | - | 302 W/m² | - |
| 1777501797 | 16.67° C | 61% | 1017.6 hPa | 0 mm | - | 308 W/m² | - |
| 1777501494 | 16.67° C | 58% | 1017.6 hPa | 0 mm | - | 255 W/m² | - |
| 1777501191 | 16.11° C | 60% | 1017.6 hPa | 0 mm | - | 181 W/m² | - |
| 1777500890 | 16.11° C | 60% | 1017.6 hPa | 0 mm | - | 129 W/m² | - |
| 1777500586 | 16.11° C | 60% | 1017.7 hPa | 0 mm | - | 121 W/m² | - |
| 1777500283 | 16.11° C | 59% | 1017.8 hPa | 0 mm | - | 134 W/m² | - |
| 1777499979 | 16.11° C | 58% | 1017.8 hPa | 0 mm | - | 138 W/m² | - |
| 1777499676 | 16.67° C | 59% | 1017.7 hPa | 0 mm | - | 81 W/m² | - |
| 1777499373 | 16.67° C | 61% | 1017.7 hPa | 0 mm | - | 92 W/m² | - |
| 1777499072 | 16.67° C | 60% | 1017.8 hPa | 0 mm | - | 127 W/m² | - |
| 1777498767 | 17.22° C | 59% | 1017.4 hPa | 0 mm | - | 166 W/m² | - |
| 1777498464 | 17.78° C | 60% | 1017.5 hPa | 0 mm | - | 488 W/m² | - |
| 1777498160 | 17.22° C | 58% | 1017.5 hPa | 0 mm | - | 571 W/m² | - |
| 1777497858 | 17.22° C | 62% | 1017.7 hPa | 0 mm | - | 256 W/m² | - |
| 1777497554 | 17.78° C | 58% | 1017.8 hPa | 0 mm | - | 460 W/m² | - |
| 1777497250 | 17.78° C | 58% | 1017.5 hPa | 0 mm | - | 291 W/m² | - |
| 1777496947 | 17.78° C | 57% | 1017.7 hPa | 0 mm | - | 567 W/m² | - |
| 1777496644 | 18.89° C | 58% | 1017.8 hPa | 0 mm | - | 600 W/m² | - |
| 1777496341 | 17.78° C | 59% | 1017.9 hPa | 0 mm | - | 513 W/m² | - |
| 1777496036 | 17.78° C | 58% | 1018.1 hPa | 0 mm | - | 611 W/m² | - |
* Rain latest hour (hover to see other rain measurements)
** Current wind speed in m/s (hover to see current wind gust speed)